Location: Iesi
(43.5167°N, 13.2333°E)
Time: 01:24:07
(UTC+00:00)

Cosmos 389 Rocket - Pass Details

Date: 08 August 2020
Orbit: 443 x 475 km, 81.1° (Epoch: 19 September)

Event Time Altitude Azimuth Distance (km) Brightness Sun altitude
Rises 19:16:13 0° 354° (N) 2,453 6.8 -9.8°
Reaches altitude 10° 19:18:19 10° 359° (N) 1,579 5.7 -10.1°
Maximum altitude 19:21:42 54° 77° (ENE) 552 2.6 -10.6°
Enters shadow 19:24:34 14° 154° (SSE) 1,371 4.3 -11.1°
